Location: Vlissingen
(51.4500°N, 3.5830°E)
Time: 11:30:51
(UTC+02:00)

Envisat - Pass Details

Date: 28 May 2024
Orbit: 762 x 764 km, 98.3° (Epoch: 13 June)

Event Time Altitude Azimuth Distance (km) Brightness Sun altitude
Rises 03:42:39 0° 28° (NNE) 3,239 8.4 -12.5°
Reaches altitude 10° 03:45:57 10° 50° (NE) 2,307 6.7 -12.2°
Maximum altitude 03:48:56 16° 87° (E) 1,940 5.5 -12.0°
Drops below altitude 10° 03:51:55 10° 123° (ESE) 2,296 5.5 -11.7°
Sets 03:55:10 0° 145° (SE) 3,216 6.0 -11.5°
